owner,sensor,date,latitude,longitude,vertical_datum,mass_concentration_of_oxygen_in_sea_water,qcFlag 
SCCF RECON,ioos:station:SCCF:18:1,2013-09-01T00:00:00Z,26.6955,-81.8138,1.67,3.55,1111122 
SCCF RECON,ioos:station:SCCF:18:1,2013-09-01T01:00:00Z,26.6955,-81.8138,1.64,3.46,1111122 
SCCF RECON,ioos:station:SCCF:18:1,2013-09-01T02:00:00Z,26.6955,-81.8138,1.62,3.39,1111122 
SCCF RECON,ioos:station:SCCF:18:1,2013-09-01T03:00:00Z,26.6955,-81.8138,1.63,3.35,1111122 
SCCF RECON,ioos:station:SCCF:18:1,2013-09-01T04:00:00Z,26.6955,-81.8138,1.69,3.22,1111122 
SCCF RECON,ioos:station:SCCF:18:1,2013-09-01T05:00:00Z,26.6955,-81.8138,1.75,3.21,1111122 
SCCF RECON,ioos:station:SCCF:18:1,2013-09-01T06:00:00Z,26.6955,-81.8138,1.79,3.25,1111122 
SCCF RECON,ioos:station:SCCF:18:1,2013-09-01T07:00:00Z,26.6955,-81.8138,1.82,3.35,1111122 
SCCF RECON,ioos:station:SCCF:18:1,2013-09-01T08:00:00Z,26.6955,-81.8138,1.83,3.31,1111122 
SCCF RECON,ioos:station:SCCF:18:1,2013-09-01T09:00:00Z,26.6955,-81.8138,1.8,3.3,1111122 
SCCF RECON,ioos:station:SCCF:18:1,2013-09-01T10:00:00Z,26.6955,-81.8138,1.77,3.3,1111122 
SCCF RECON,ioos:station:SCCF:18:1,2013-09-01T11:00:00Z,26.6955,-81.8138,1.735,3.23,1111122 
SCCF RECON,ioos:station:SCCF:18:1,2013-09-01T12:00:00Z,26.6955,-81.8138,1.71,3.21,1111122 
SCCF RECON,ioos:station:SCCF:18:1,2013-09-01T13:00:00Z,26.6955,-81.8138,1.71,3.14,1111122 
SCCF RECON,ioos:station:SCCF:18:1,2013-09-01T14:00:00Z,26.6955,-81.8138,1.75,3.14,1111122 
SCCF RECON,ioos:station:SCCF:18:1,2013-09-01T15:00:00Z,26.6955,-81.8138,1.824,3.13,1111122 
SCCF RECON,ioos:station:SCCF:18:1,2013-09-01T16:00:00Z,26.6955,-81.8138,1.9,3.08,1111122 
SCCF RECON,ioos:station:SCCF:18:1,2013-09-01T17:00:00Z,26.6955,-81.8138,1.95,3.01,1111122 
SCCF RECON,ioos:station:SCCF:18:1,2013-09-01T18:00:00Z,26.6955,-81.8138,1.98,3.13,1111122 
SCCF RECON,ioos:station:SCCF:18:1,2013-09-01T19:00:00Z,26.6955,-81.8138,1.97,3.23,1111122 
SCCF RECON,ioos:station:SCCF:18:1,2013-09-01T20:00:00Z,26.6955,-81.8138,1.92,2.95,1111122 
SCCF RECON,ioos:station:SCCF:18:1,2013-09-01T21:00:00Z,26.6955,-81.8138,1.9,3.81,1111122 
SCCF RECON,ioos:station:SCCF:18:1,2013-09-01T22:00:00Z,26.6955,-81.8138,1.8,4.11,1111122 
SCCF RECON,ioos:station:SCCF:18:1,2013-09-01T23:00:00Z,26.6955,-81.8138,1.77,3.99,1111122 
SCCF RECON,ioos:station:SCCF:18:1,2013-09-02T00:00:00Z,26.6955,-81.8138,1.75,3.98,1111122 
SCCF RECON,ioos:station:SCCF:18:1,2013-09-02T01:00:00Z,26.6955,-81.8138,1.72,3.93,1111122 
SCCF RECON,ioos:station:SCCF:18:1,2013-09-02T02:00:00Z,26.6955,-81.8138,1.68,3.52,1111122 
SCCF RECON,ioos:station:SCCF:18:1,2013-09-02T03:00:00Z,26.6955,-81.8138,1.67,3.66,1111122 
SCCF RECON,ioos:station:SCCF:18:1,2013-09-02T04:00:00Z,26.6955,-81.8138,1.69,3.58,1111122 
SCCF RECON,ioos:station:SCCF:18:1,2013-09-02T05:00:00Z,26.6955,-81.8138,1.76,3.59,1111122 
SCCF RECON,ioos:station:SCCF:18:1,2013-09-02T06:00:00Z,26.6955,-81.8138,1.81,3.64,1111122 
SCCF RECON,ioos:station:SCCF:18:1,2013-09-02T07:00:00Z,26.6955,-81.8138,1.85,3.67,1111122 
SCCF RECON,ioos:station:SCCF:18:1,2013-09-02T08:00:00Z,26.6955,-81.8138,1.87,3.7,1111122 
SCCF RECON,ioos:station:SCCF:18:1,2013-09-02T09:00:00Z,26.6955,-81.8138,1.85,3.71,1111122 
SCCF RECON,ioos:station:SCCF:18:1,2013-09-02T10:00:00Z,26.6955,-81.8138,1.82,3.55,1111122 
SCCF RECON,ioos:station:SCCF:18:1,2013-09-02T11:00:00Z,26.6955,-81.8138,1.79,3.68,1111122 
SCCF RECON,ioos:station:SCCF:18:1,2013-09-02T12:00:00Z,26.6955,-81.8138,1.76,3.57,1111122 
SCCF RECON,ioos:station:SCCF:18:1,2013-09-02T13:00:00Z,26.6955,-81.8138,1.75,3.4,1111122 
SCCF RECON,ioos:station:SCCF:18:1,2013-09-02T14:00:00Z,26.6955,-81.8138,1.75,3.37,1111122 
SCCF RECON,ioos:station:SCCF:18:1,2013-09-02T15:00:00Z,26.6955,-81.8138,1.839,3.35,1111122 
SCCF RECON,ioos:station:SCCF:18:1,2013-09-02T16:00:00Z,26.6955,-81.8138,1.92,3.31,1111122 
SCCF RECON,ioos:station:SCCF:18:1,2013-09-02T17:00:00Z,26.6955,-81.8138,1.99,3.38,1111122 
SCCF RECON,ioos:station:SCCF:18:1,2013-09-02T18:00:00Z,26.6955,-81.8138,2.01,3.34,1111122 
SCCF RECON,ioos:station:SCCF:18:1,2013-09-02T19:00:00Z,26.6955,-81.8138,2.029,3.53,1111122 
SCCF RECON,ioos:station:SCCF:18:1,2013-09-02T20:00:00Z,26.6955,-81.8138,1.99,3.54,1111122 
SCCF RECON,ioos:station:SCCF:18:1,2013-09-02T21:00:00Z,26.6955,-81.8138,1.93,3.47,1111122 
SCCF RECON,ioos:station:SCCF:18:1,2013-09-02T22:00:00Z,26.6955,-81.8138,1.87,3.35,1111122 
SCCF RECON,ioos:station:SCCF:18:1,2013-09-02T23:00:00Z,26.6955,-81.8138,1.814,3.38,1111122 
SCCF RECON,ioos:station:SCCF:18:1,2013-09-03T00:00:00Z,26.6955,-81.8138,1.76,3.31,1111122 
SCCF RECON,ioos:station:SCCF:18:1,2013-09-03T01:00:00Z,26.6955,-81.8138,1.71,3.2,1111122 
SCCF RECON,ioos:station:SCCF:18:1,2013-09-03T02:00:00Z,26.6955,-81.8138,1.68,3.12,1111122 
SCCF RECON,ioos:station:SCCF:18:1,2013-09-03T03:00:00Z,26.6955,-81.8138,1.66,3.06,1111122 
SCCF RECON,ioos:station:SCCF:18:1,2013-09-03T04:00:00Z,26.6955,-81.8138,1.66,3.05,1111122 
SCCF RECON,ioos:station:SCCF:18:1,2013-09-03T05:00:00Z,26.6955,-81.8138,1.72,3.0,1111122 
SCCF RECON,ioos:station:SCCF:18:1,2013-09-03T06:00:00Z,26.6955,-81.8138,1.78,3.01,1111122 
SCCF RECON,ioos:station:SCCF:18:1,2013-09-03T07:00:00Z,26.6955,-81.8138,1.83,3.02,1111122 
SCCF RECON,ioos:station:SCCF:18:1,2013-09-03T08:00:00Z,26.6955,-81.8138,1.86,3.01,1111122 
SCCF RECON,ioos:station:SCCF:18:1,2013-09-03T09:00:00Z,26.6955,-81.8138,1.84,3.04,1111122 
SCCF RECON,ioos:station:SCCF:18:1,2013-09-03T10:00:00Z,26.6955,-81.8138,1.81,3.03,1111122 
SCCF RECON,ioos:station:SCCF:18:1,2013-09-03T11:00:00Z,26.6955,-81.8138,1.78,2.98,1111122 
SCCF RECON,ioos:station:SCCF:18:1,2013-09-03T12:00:00Z,26.6955,-81.8138,1.74,3.13,1111122 
SCCF RECON,ioos:station:SCCF:18:1,2013-09-03T13:00:00Z,26.6955,-81.8138,1.72,3.03,1111122 
SCCF RECON,ioos:station:SCCF:18:1,2013-09-03T14:00:00Z,26.6955,-81.8138,1.7,2.78,1111122 
SCCF RECON,ioos:station:SCCF:18:1,2013-09-03T15:00:00Z,26.6955,-81.8138,1.74,2.89,1111122 
SCCF RECON,ioos:station:SCCF:18:1,2013-09-03T16:00:00Z,26.6955,-81.8138,1.83,2.84,1111122 
SCCF RECON,ioos:station:SCCF:18:1,2013-09-03T17:00:00Z,26.6955,-81.8138,1.902,2.81,1111122 
SCCF RECON,ioos:station:SCCF:18:1,2013-09-03T18:00:00Z,26.6955,-81.8138,1.95,3.04,1111122 
SCCF RECON,ioos:station:SCCF:18:1,2013-09-03T19:00:00Z,26.6955,-81.8138,1.99,2.84,1111122 
SCCF RECON,ioos:station:SCCF:18:1,2013-09-03T20:00:00Z,26.6955,-81.8138,1.97,2.84,1111122 
SCCF RECON,ioos:station:SCCF:18:1,2013-09-03T21:00:00Z,26.6955,-81.8138,1.93,2.96,1111122 
SCCF RECON,ioos:station:SCCF:18:1,2013-09-03T22:00:00Z,26.6955,-81.8138,1.87,2.89,1111122 
SCCF RECON,ioos:station:SCCF:18:1,2013-09-03T23:00:00Z,26.6955,-81.8138,1.82,2.98,1111122 
SCCF RECON,ioos:station:SCCF:18:1,2013-09-04T00:00:00Z,26.6955,-81.8138,1.78,2.93,1111122 
SCCF RECON,ioos:station:SCCF:18:1,2013-09-04T01:00:00Z,26.6955,-81.8138,1.74,3.04,1111122 
SCCF RECON,ioos:station:SCCF:18:1,2013-09-04T02:00:00Z,26.6955,-81.8138,1.7,3.0,1111122 
SCCF RECON,ioos:station:SCCF:18:1,2013-09-04T03:00:00Z,26.6955,-81.8138,1.67,2.96,1111122 
SCCF RECON,ioos:station:SCCF:18:1,2013-09-04T04:00:00Z,26.6955,-81.8138,1.65,2.82,1111122 
SCCF RECON,ioos:station:SCCF:18:1,2013-09-04T05:00:00Z,26.6955,-81.8138,1.69,2.93,1111122 
SCCF RECON,ioos:station:SCCF:18:1,2013-09-04T06:00:00Z,26.6955,-81.8138,1.748,2.94,1111122 
SCCF RECON,ioos:station:SCCF:18:1,2013-09-04T07:00:00Z,26.6955,-81.8138,1.8,2.9,1111122 
SCCF RECON,ioos:station:SCCF:18:1,2013-09-04T08:00:00Z,26.6955,-81.8138,1.85,2.89,1111122 
SCCF RECON,ioos:station:SCCF:18:1,2013-09-04T09:00:00Z,26.6955,-81.8138,1.85,2.84,1111122 
SCCF RECON,ioos:station:SCCF:18:1,2013-09-04T10:00:00Z,26.6955,-81.8138,1.81,3.0,1111122 
SCCF RECON,ioos:station:SCCF:18:1,2013-09-04T11:00:00Z,26.6955,-81.8138,1.78,3.13,1111122 
SCCF RECON,ioos:station:SCCF:18:1,2013-09-04T12:00:00Z,26.6955,-81.8138,1.73,3.02,1111122 
SCCF RECON,ioos:station:SCCF:18:1,2013-09-04T13:00:00Z,26.6955,-81.8138,1.7,2.9,1111122 
SCCF RECON,ioos:station:SCCF:18:1,2013-09-04T14:00:00Z,26.6955,-81.8138,1.67,2.99,1111122 
SCCF RECON,ioos:station:SCCF:18:1,2013-09-04T15:00:00Z,26.6955,-81.8138,1.66,2.94,1111122 
SCCF RECON,ioos:station:SCCF:18:1,2013-09-04T16:00:00Z,26.6955,-81.8138,1.7,2.93,1111122 
SCCF RECON,ioos:station:SCCF:18:1,2013-09-04T17:00:00Z,26.6955,-81.8138,1.8,3.07,1111122 
SCCF RECON,ioos:station:SCCF:18:1,2013-09-04T18:00:00Z,26.6955,-81.8138,1.84,2.83,1111122 
SCCF RECON,ioos:station:SCCF:18:1,2013-09-04T19:00:00Z,26.6955,-81.8138,1.92,3.23,1111122 
SCCF RECON,ioos:station:SCCF:18:1,2013-09-04T20:00:00Z,26.6955,-81.8138,1.96,3.24,1111122 
SCCF RECON,ioos:station:SCCF:18:1,2013-09-04T21:00:00Z,26.6955,-81.8138,1.979,2.81,1111122 
SCCF RECON,ioos:station:SCCF:18:1,2013-09-04T22:00:00Z,26.6955,-81.8138,1.913,2.97,1111122 
SCCF RECON,ioos:station:SCCF:18:1,2013-09-04T23:00:00Z,26.6955,-81.8138,1.86,3.19,1111122 
SCCF RECON,ioos:station:SCCF:18:1,2013-09-05T00:00:00Z,26.6955,-81.8138,1.81,3.26,1111122 
SCCF RECON,ioos:station:SCCF:18:1,2013-09-05T01:00:00Z,26.6955,-81.8138,1.77,3.14,1111122 
SCCF RECON,ioos:station:SCCF:18:1,2013-09-05T02:00:00Z,26.6955,-81.8138,1.73,3.03,1111122 
SCCF RECON,ioos:station:SCCF:18:1,2013-09-05T03:00:00Z,26.6955,-81.8138,1.68,2.85,1111122 
SCCF RECON,ioos:station:SCCF:18:1,2013-09-05T04:00:00Z,26.6955,-81.8138,1.65,2.89,1111122 
SCCF RECON,ioos:station:SCCF:18:1,2013-09-05T05:00:00Z,26.6955,-81.8138,1.65,2.98,1111122 
SCCF RECON,ioos:station:SCCF:18:1,2013-09-05T06:00:00Z,26.6955,-81.8138,1.71,2.89,1111122 
SCCF RECON,ioos:station:SCCF:18:1,2013-09-05T07:00:00Z,26.6955,-81.8138,1.77,2.9,1111122 
SCCF RECON,ioos:station:SCCF:18:1,2013-09-05T08:00:00Z,26.6955,-81.8138,1.8,2.87,1111122 
SCCF RECON,ioos:station:SCCF:18:1,2013-09-05T09:00:00Z,26.6955,-81.8138,1.8,2.89,1111122 
SCCF RECON,ioos:station:SCCF:18:1,2013-09-05T10:00:00Z,26.6955,-81.8138,1.78,3.03,1111122 
SCCF RECON,ioos:station:SCCF:18:1,2013-09-05T11:00:00Z,26.6955,-81.8138,1.75,3.02,1111122 
SCCF RECON,ioos:station:SCCF:18:1,2013-09-05T12:00:00Z,26.6955,-81.8138,1.71,2.87,1111122 
SCCF RECON,ioos:station:SCCF:18:1,2013-09-05T13:00:00Z,26.6955,-81.8138,1.67,2.86,1111122 
SCCF RECON,ioos:station:SCCF:18:1,2013-09-05T14:00:00Z,26.6955,-81.8138,1.64,2.76,1111122 
SCCF RECON,ioos:station:SCCF:18:1,2013-09-05T15:00:00Z,26.6955,-81.8138,1.61,2.74,1111122 
SCCF RECON,ioos:station:SCCF:18:1,2013-09-05T16:00:00Z,26.6955,-81.8138,1.6,2.98,1111122 
SCCF RECON,ioos:station:SCCF:18:1,2013-09-05T17:00:00Z,26.6955,-81.8138,1.68,2.92,1111122 
SCCF RECON,ioos:station:SCCF:18:1,2013-09-05T18:00:00Z,26.6955,-81.8138,1.76,2.98,1111122 
SCCF RECON,ioos:station:SCCF:18:1,2013-09-05T19:00:00Z,26.6955,-81.8138,1.83,3.16,1111122 
SCCF RECON,ioos:station:SCCF:18:1,2013-09-05T20:00:00Z,26.6955,-81.8138,1.86,2.87,1111122 
SCCF RECON,ioos:station:SCCF:18:1,2013-09-05T21:00:00Z,26.6955,-81.8138,1.919,3.44,1111122 
SCCF RECON,ioos:station:SCCF:18:1,2013-09-05T22:00:00Z,26.6955,-81.8138,1.9,2.99,1111122 
SCCF RECON,ioos:station:SCCF:18:1,2013-09-05T23:00:00Z,26.6955,-81.8138,1.87,3.14,1111122 
SCCF RECON,ioos:station:SCCF:18:1,2013-09-06T00:00:00Z,26.6955,-81.8138,1.81,3.01,1111122 
SCCF RECON,ioos:station:SCCF:18:1,2013-09-06T01:00:00Z,26.6955,-81.8138,1.77,3.21,1111122 
SCCF RECON,ioos:station:SCCF:18:1,2013-09-06T02:00:00Z,26.6955,-81.8138,1.72,3.08,1111122 
SCCF RECON,ioos:station:SCCF:18:1,2013-09-06T03:00:00Z,26.6955,-81.8138,1.67,2.98,1111122 
SCCF RECON,ioos:station:SCCF:18:1,2013-09-06T04:00:00Z,26.6955,-81.8138,1.63,2.99,1111122 
SCCF RECON,ioos:station:SCCF:18:1,2013-09-06T05:00:00Z,26.6955,-81.8138,1.64,2.92,1111122 
SCCF RECON,ioos:station:SCCF:18:1,2013-09-06T06:00:00Z,26.6955,-81.8138,1.71,2.85,1111122 
SCCF RECON,ioos:station:SCCF:18:1,2013-09-06T07:00:00Z,26.6955,-81.8138,1.79,2.86,1111122 
SCCF RECON,ioos:station:SCCF:18:1,2013-09-06T08:00:00Z,26.6955,-81.8138,1.85,2.78,1111122 
SCCF RECON,ioos:station:SCCF:18:1,2013-09-06T09:00:00Z,26.6955,-81.8138,1.88,2.81,1111122 
SCCF RECON,ioos:station:SCCF:18:1,2013-09-06T10:00:00Z,26.6955,-81.8138,1.88,2.96,1111122 
SCCF RECON,ioos:station:SCCF:18:1,2013-09-06T11:00:00Z,26.6955,-81.8138,1.833,2.96,1111122 
SCCF RECON,ioos:station:SCCF:18:1,2013-09-06T12:00:00Z,26.6955,-81.8138,1.79,2.93,1111122 
SCCF RECON,ioos:station:SCCF:18:1,2013-09-06T13:00:00Z,26.6955,-81.8138,1.73,2.78,1111122 
SCCF RECON,ioos:station:SCCF:18:1,2013-09-06T14:00:00Z,26.6955,-81.8138,1.69,2.83,1111122 
SCCF RECON,ioos:station:SCCF:18:1,2013-09-06T15:00:00Z,26.6955,-81.8138,1.65,2.8,1111122 
SCCF RECON,ioos:station:SCCF:18:1,2013-09-06T16:00:00Z,26.6955,-81.8138,1.63,2.77,1111122 
SCCF RECON,ioos:station:SCCF:18:1,2013-09-06T17:00:00Z,26.6955,-81.8138,1.61,2.74,1111122 
SCCF RECON,ioos:station:SCCF:18:1,2013-09-06T18:00:00Z,26.6955,-81.8138,1.69,2.76,1111122 
SCCF RECON,ioos:station:SCCF:18:1,2013-09-06T19:00:00Z,26.6955,-81.8138,1.76,2.62,1111122 
SCCF RECON,ioos:station:SCCF:18:1,2013-09-06T20:00:00Z,26.6955,-81.8138,1.81,2.57,1111122 
SCCF RECON,ioos:station:SCCF:18:1,2013-09-06T21:00:00Z,26.6955,-81.8138,1.85,2.55,1111122 
SCCF RECON,ioos:station:SCCF:18:1,2013-09-06T22:00:00Z,26.6955,-81.8138,1.88,2.6,1111122 
SCCF RECON,ioos:station:SCCF:18:1,2013-09-06T23:00:00Z,26.6955,-81.8138,1.86,2.84,1111122 
SCCF RECON,ioos:station:SCCF:18:1,2013-09-07T00:00:00Z,26.6955,-81.8138,1.77,2.96,1111122 
SCCF RECON,ioos:station:SCCF:18:1,2013-09-07T01:00:00Z,26.6955,-81.8138,1.74,3.0,1111122 
SCCF RECON,ioos:station:SCCF:18:1,2013-09-07T02:00:00Z,26.6955,-81.8138,1.73,2.92,1111122 
SCCF RECON,ioos:station:SCCF:18:1,2013-09-07T03:00:00Z,26.6955,-81.8138,1.71,3.1,1111122 
SCCF RECON,ioos:station:SCCF:18:1,2013-09-07T04:00:00Z,26.6955,-81.8138,1.66,3.05,1111122 
SCCF RECON,ioos:station:SCCF:18:1,2013-09-07T05:00:00Z,26.6955,-81.8138,1.62,2.96,1111122 
SCCF RECON,ioos:station:SCCF:18:1,2013-09-07T06:00:00Z,26.6955,-81.8138,1.6,2.76,1111122 
SCCF RECON,ioos:station:SCCF:18:1,2013-09-07T07:00:00Z,26.6955,-81.8138,1.652,2.67,1111122 
SCCF RECON,ioos:station:SCCF:18:1,2013-09-07T08:00:00Z,26.6955,-81.8138,1.73,2.81,1111122 
SCCF RECON,ioos:station:SCCF:18:1,2013-09-07T09:00:00Z,26.6955,-81.8138,1.78,2.66,1111122 
SCCF RECON,ioos:station:SCCF:18:1,2013-09-07T10:00:00Z,26.6955,-81.8138,1.79,2.75,1111122 
SCCF RECON,ioos:station:SCCF:18:1,2013-09-07T11:00:00Z,26.6955,-81.8138,1.78,2.83,1111122 
SCCF RECON,ioos:station:SCCF:18:1,2013-09-07T12:00:00Z,26.6955,-81.8138,1.748,2.98,1111122 
SCCF RECON,ioos:station:SCCF:18:1,2013-09-07T13:00:00Z,26.6955,-81.8138,1.69,2.56,1111122 
SCCF RECON,ioos:station:SCCF:18:1,2013-09-07T14:00:00Z,26.6955,-81.8138,1.66,2.57,1111122 
SCCF RECON,ioos:station:SCCF:18:1,2013-09-07T15:00:00Z,26.6955,-81.8138,1.62,2.53,1111122 
SCCF RECON,ioos:station:SCCF:18:1,2013-09-07T16:00:00Z,26.6955,-81.8138,1.58,2.52,1111122 
SCCF RECON,ioos:station:SCCF:18:1,2013-09-07T17:00:00Z,26.6955,-81.8138,1.55,2.49,1111122 
SCCF RECON,ioos:station:SCCF:18:1,2013-09-07T18:00:00Z,26.6955,-81.8138,1.61,2.58,1111122 
SCCF RECON,ioos:station:SCCF:18:1,2013-09-07T19:00:00Z,26.6955,-81.8138,1.69,2.56,1111122 
SCCF RECON,ioos:station:SCCF:18:1,2013-09-07T20:00:00Z,26.6955,-81.8138,1.76,2.53,1111122 
SCCF RECON,ioos:station:SCCF:18:1,2013-09-07T21:00:00Z,26.6955,-81.8138,1.813,3.04,1111122 
SCCF RECON,ioos:station:SCCF:18:1,2013-09-07T22:00:00Z,26.6955,-81.8138,1.89,3.51,1111122 
SCCF RECON,ioos:station:SCCF:18:1,2013-09-07T23:00:00Z,26.6955,-81.8138,1.87,3.29,1111122 
SCCF RECON,ioos:station:SCCF:18:1,2013-09-08T00:00:00Z,26.6955,-81.8138,1.83,3.34,1111122 
SCCF RECON,ioos:station:SCCF:18:1,2013-09-08T01:00:00Z,26.6955,-81.8138,1.79,3.04,1111122 
SCCF RECON,ioos:station:SCCF:18:1,2013-09-08T02:00:00Z,26.6955,-81.8138,1.75,3.36,1111122 
SCCF RECON,ioos:station:SCCF:18:1,2013-09-08T03:00:00Z,26.6955,-81.8138,1.71,3.29,1111122 
SCCF RECON,ioos:station:SCCF:18:1,2013-09-08T04:00:00Z,26.6955,-81.8138,1.67,3.16,1111122 
SCCF RECON,ioos:station:SCCF:18:1,2013-09-08T05:00:00Z,26.6955,-81.8138,1.64,3.17,1111122 
SCCF RECON,ioos:station:SCCF:18:1,2013-09-08T06:00:00Z,26.6955,-81.8138,1.63,3.02,1111122 
SCCF RECON,ioos:station:SCCF:18:1,2013-09-08T07:00:00Z,26.6955,-81.8138,1.7,3.19,1111122 
SCCF RECON,ioos:station:SCCF:18:1,2013-09-08T08:00:00Z,26.6955,-81.8138,1.77,3.16,1111122 
SCCF RECON,ioos:station:SCCF:18:1,2013-09-08T09:00:00Z,26.6955,-81.8138,1.83,3.17,1111122 
SCCF RECON,ioos:station:SCCF:18:1,2013-09-08T10:00:00Z,26.6955,-81.8138,1.88,3.24,1111122 
SCCF RECON,ioos:station:SCCF:18:1,2013-09-08T11:00:00Z,26.6955,-81.8138,1.89,3.26,1111122 
SCCF RECON,ioos:station:SCCF:18:1,2013-09-08T12:00:00Z,26.6955,-81.8138,1.86,3.33,1111122 
SCCF RECON,ioos:station:SCCF:18:1,2013-09-08T13:00:00Z,26.6955,-81.8138,1.81,3.02,1111122 
SCCF RECON,ioos:station:SCCF:18:1,2013-09-08T14:00:00Z,26.6955,-81.8138,1.76,2.96,1111122 
SCCF RECON,ioos:station:SCCF:18:1,2013-09-08T15:00:00Z,26.6955,-81.8138,1.72,2.9,1111122 
SCCF RECON,ioos:station:SCCF:18:1,2013-09-08T16:00:00Z,26.6955,-81.8138,1.67,2.85,1111122 
SCCF RECON,ioos:station:SCCF:18:1,2013-09-08T17:00:00Z,26.6955,-81.8138,1.62,2.84,1111122 
SCCF RECON,ioos:station:SCCF:18:1,2013-09-08T18:00:00Z,26.6955,-81.8138,1.6,2.91,1111122 
SCCF RECON,ioos:station:SCCF:18:1,2013-09-08T19:00:00Z,26.6955,-81.8138,1.63,2.92,1111122 
SCCF RECON,ioos:station:SCCF:18:1,2013-09-08T20:00:00Z,26.6955,-81.8138,1.72,2.91,1111122 
SCCF RECON,ioos:station:SCCF:18:1,2013-09-08T21:00:00Z,26.6955,-81.8138,1.789,2.89,1111122 
SCCF RECON,ioos:station:SCCF:18:1,2013-09-08T22:00:00Z,26.6955,-81.8138,1.821,2.85,1111122 
SCCF RECON,ioos:station:SCCF:18:1,2013-09-08T23:00:00Z,26.6955,-81.8138,1.83,3.02,1111122 
SCCF RECON,ioos:station:SCCF:18:1,2013-09-09T00:00:00Z,26.6955,-81.8138,1.84,2.98,1111122 
SCCF RECON,ioos:station:SCCF:18:1,2013-09-09T01:00:00Z,26.6955,-81.8138,1.82,3.02,1111122 
SCCF RECON,ioos:station:SCCF:18:1,2013-09-09T02:00:00Z,26.6955,-81.8138,1.78,3.01,1111122 
SCCF RECON,ioos:station:SCCF:18:1,2013-09-09T03:00:00Z,26.6955,-81.8138,1.74,2.93,1111122 
SCCF RECON,ioos:station:SCCF:18:1,2013-09-09T04:00:00Z,26.6955,-81.8138,1.71,2.89,1111122 
SCCF RECON,ioos:station:SCCF:18:1,2013-09-09T05:00:00Z,26.6955,-81.8138,1.67,2.9,1111122 
SCCF RECON,ioos:station:SCCF:18:1,2013-09-09T06:00:00Z,26.6955,-81.8138,1.66,2.88,1111122 
SCCF RECON,ioos:station:SCCF:18:1,2013-09-09T07:00:00Z,26.6955,-81.8138,1.71,2.91,1111122 
SCCF RECON,ioos:station:SCCF:18:1,2013-09-09T08:00:00Z,26.6955,-81.8138,1.78,2.98,1111122 
SCCF RECON,ioos:station:SCCF:18:1,2013-09-09T09:00:00Z,26.6955,-81.8138,1.84,2.95,1111122 
SCCF RECON,ioos:station:SCCF:18:1,2013-09-09T10:00:00Z,26.6955,-81.8138,1.9,2.98,1111122 
SCCF RECON,ioos:station:SCCF:18:1,2013-09-09T11:00:00Z,26.6955,-81.8138,1.93,2.94,1111122 
SCCF RECON,ioos:station:SCCF:18:1,2013-09-09T12:00:00Z,26.6955,-81.8138,1.9,2.93,1111122 
SCCF RECON,ioos:station:SCCF:18:1,2013-09-09T13:00:00Z,26.6955,-81.8138,1.86,2.95,1111122 
SCCF RECON,ioos:station:SCCF:18:1,2013-09-09T14:00:00Z,26.6955,-81.8138,1.82,2.89,1111122 
SCCF RECON,ioos:station:SCCF:18:1,2013-09-09T15:00:00Z,26.6955,-81.8138,1.78,2.96,1111122 
SCCF RECON,ioos:station:SCCF:18:1,2013-09-09T16:00:00Z,26.6955,-81.8138,1.73,2.92,1111122 
SCCF RECON,ioos:station:SCCF:18:1,2013-09-09T17:00:00Z,26.6955,-81.8138,1.68,2.94,1111122 
SCCF RECON,ioos:station:SCCF:18:1,2013-09-09T18:00:00Z,26.6955,-81.8138,1.64,2.98,1111122 
SCCF RECON,ioos:station:SCCF:18:1,2013-09-09T19:00:00Z,26.6955,-81.8138,1.6,3.01,1111122 
SCCF RECON,ioos:station:SCCF:18:1,2013-09-09T20:00:00Z,26.6955,-81.8138,1.62,3.1,1111122 
SCCF RECON,ioos:station:SCCF:18:1,2013-09-09T21:00:00Z,26.6955,-81.8138,1.67,3.17,1111122 
SCCF RECON,ioos:station:SCCF:18:1,2013-09-09T22:00:00Z,26.6955,-81.8138,1.717,3.14,1111122 
SCCF RECON,ioos:station:SCCF:18:1,2013-09-09T23:00:00Z,26.6955,-81.8138,1.77,3.34,1111122 
SCCF RECON,ioos:station:SCCF:18:1,2013-09-10T00:00:00Z,26.6955,-81.8138,1.8,3.23,1111122 
SCCF RECON,ioos:station:SCCF:18:1,2013-09-10T01:00:00Z,26.6955,-81.8138,1.8,3.24,1111122 
SCCF RECON,ioos:station:SCCF:18:1,2013-09-10T02:00:00Z,26.6955,-81.8138,1.77,3.21,1111122 
SCCF RECON,ioos:station:SCCF:18:1,2013-09-10T03:00:00Z,26.6955,-81.8138,1.73,3.2,1111122 
SCCF RECON,ioos:station:SCCF:18:1,2013-09-10T04:00:00Z,26.6955,-81.8138,1.69,3.16,1111122 
SCCF RECON,ioos:station:SCCF:18:1,2013-09-10T05:00:00Z,26.6955,-81.8138,1.65,3.14,1111122 
SCCF RECON,ioos:station:SCCF:18:1,2013-09-10T06:00:00Z,26.6955,-81.8138,1.63,3.15,1111122 
SCCF RECON,ioos:station:SCCF:18:1,2013-09-10T07:00:00Z,26.6955,-81.8138,1.63,3.14,1111122 
SCCF RECON,ioos:station:SCCF:18:1,2013-09-10T08:00:00Z,26.6955,-81.8138,1.71,3.1,1111122 
SCCF RECON,ioos:station:SCCF:18:1,2013-09-10T09:00:00Z,26.6955,-81.8138,1.78,3.14,1111122 
SCCF RECON,ioos:station:SCCF:18:1,2013-09-10T10:00:00Z,26.6955,-81.8138,1.85,3.11,1111122 
SCCF RECON,ioos:station:SCCF:18:1,2013-09-10T11:00:00Z,26.6955,-81.8138,1.89,3.11,1111122 
SCCF RECON,ioos:station:SCCF:18:1,2013-09-10T12:00:00Z,26.6955,-81.8138,1.898,3.09,1111122 
SCCF RECON,ioos:station:SCCF:18:1,2013-09-10T13:00:00Z,26.6955,-81.8138,1.85,3.07,1111122 
SCCF RECON,ioos:station:SCCF:18:1,2013-09-10T14:00:00Z,26.6955,-81.8138,1.8,3.08,1111122 
SCCF RECON,ioos:station:SCCF:18:1,2013-09-10T15:00:00Z,26.6955,-81.8138,1.75,3.1,1111122 
SCCF RECON,ioos:station:SCCF:18:1,2013-09-10T16:00:00Z,26.6955,-81.8138,1.7,3.15,1111122 
SCCF RECON,ioos:station:SCCF:18:1,2013-09-10T17:00:00Z,26.6955,-81.8138,1.65,3.21,1111122 
SCCF RECON,ioos:station:SCCF:18:1,2013-09-10T18:00:00Z,26.6955,-81.8138,1.604,3.15,1111122 
SCCF RECON,ioos:station:SCCF:18:1,2013-09-10T19:00:00Z,26.6955,-81.8138,1.56,3.17,1111122 
SCCF RECON,ioos:station:SCCF:18:1,2013-09-10T20:00:00Z,26.6955,-81.8138,1.51,3.13,1111122 
SCCF RECON,ioos:station:SCCF:18:1,2013-09-10T21:00:00Z,26.6955,-81.8138,1.53,3.61,1111122 
SCCF RECON,ioos:station:SCCF:18:1,2013-09-10T22:00:00Z,26.6955,-81.8138,1.58,3.67,1111122 
SCCF RECON,ioos:station:SCCF:18:1,2013-09-10T23:00:00Z,26.6955,-81.8138,1.63,3.38,1111122 
SCCF RECON,ioos:station:SCCF:18:1,2013-09-11T00:00:00Z,26.6955,-81.8138,1.69,3.8,1111122 
SCCF RECON,ioos:station:SCCF:18:1,2013-09-11T01:00:00Z,26.6955,-81.8138,1.72,3.8,1111122 
SCCF RECON,ioos:station:SCCF:18:1,2013-09-11T02:00:00Z,26.6955,-81.8138,1.73,3.36,1111122 
SCCF RECON,ioos:station:SCCF:18:1,2013-09-11T03:00:00Z,26.6955,-81.8138,1.7,3.35,1111122 
SCCF RECON,ioos:station:SCCF:18:1,2013-09-11T04:00:00Z,26.6955,-81.8138,1.67,3.37,1111122 
SCCF RECON,ioos:station:SCCF:18:1,2013-09-11T05:00:00Z,26.6955,-81.8138,1.64,3.33,1111122 
SCCF RECON,ioos:station:SCCF:18:1,2013-09-11T06:00:00Z,26.6955,-81.8138,1.6,3.28,1111122 
SCCF RECON,ioos:station:SCCF:18:1,2013-09-11T07:00:00Z,26.6955,-81.8138,1.59,3.28,1111122 
SCCF RECON,ioos:station:SCCF:18:1,2013-09-11T08:00:00Z,26.6955,-81.8138,1.63,3.26,1111122 
SCCF RECON,ioos:station:SCCF:18:1,2013-09-11T09:00:00Z,26.6955,-81.8138,1.72,3.26,1111122 
SCCF RECON,ioos:station:SCCF:18:1,2013-09-11T10:00:00Z,26.6955,-81.8138,1.78,3.26,1111122 
SCCF RECON,ioos:station:SCCF:18:1,2013-09-11T11:00:00Z,26.6955,-81.8138,1.84,3.25,1111122 
SCCF RECON,ioos:station:SCCF:18:1,2013-09-11T12:00:00Z,26.6955,-81.8138,1.88,3.26,1111122 
SCCF RECON,ioos:station:SCCF:18:1,2013-09-11T13:00:00Z,26.6955,-81.8138,1.91,3.35,1111122 
SCCF RECON,ioos:station:SCCF:18:1,2013-09-11T14:00:00Z,26.6955,-81.8138,1.87,3.24,1111122 
SCCF RECON,ioos:station:SCCF:18:1,2013-09-11T15:00:00Z,26.6955,-81.8138,1.81,3.25,1111122 
SCCF RECON,ioos:station:SCCF:18:1,2013-09-11T16:00:00Z,26.6955,-81.8138,1.75,3.37,1111122 
SCCF RECON,ioos:station:SCCF:18:1,2013-09-11T17:00:00Z,26.6955,-81.8138,1.7,3.25,1111122 
SCCF RECON,ioos:station:SCCF:18:1,2013-09-11T18:00:00Z,26.6955,-81.8138,1.648,3.31,1111122 
SCCF RECON,ioos:station:SCCF:18:1,2013-09-11T19:00:00Z,26.6955,-81.8138,1.59,3.28,1111122 
SCCF RECON,ioos:station:SCCF:18:1,2013-09-11T20:00:00Z,26.6955,-81.8138,1.55,3.38,1111122 
SCCF RECON,ioos:station:SCCF:18:1,2013-09-11T21:00:00Z,26.6955,-81.8138,1.54,3.35,1111122 